Date String (YYYY-MM-DD hh:mm:ss) UTC,Instrument flags,absolute air pressure of the measurement (hPa),sample flow rate (lpm),inlet stack bypass flow (lpm),air temperature of the measurement (°C),ambient temperature measured by the external sensor (°C),aerosol sample conditioner tube jacket temperature (°C),OPC LED temperature (°C),internal box temperature (°C),relative humidity of the measurement (%),span deviation,mass concentration of particles derived from Lorenz-Mie calculation of OPC scattering (μg/m³),mass concentration of particles derived from Lorenz-Mie calculation of OPC scattering (μg/m³),mass concentration of particles derived from Lorenz-Mie calculation of OPC scattering (μg/m³)
DateTimeUTC,F1_M11,P_M11,Q1_M11,Q2_M11,T1_M11,T2_M11,T3_M11,T4_M11,T5_M11,U1_M11,ZSPAN_M11,X0_M11,X2_M11,X1_M11
2024-06-11 09:00:00,SystemResetWarning,0830.7,5.00,000.00,031.0,030.3,000.0,039.4,032.7,023.8,0000.0,0012.98,0005.13,0004.22
2024-06-11 09:01:00,SystemResetWarning,0830.8,5.00,000.00,031.0,030.3,000.0,039.4,032.7,024.1,0000.0,0013.20,0005.19,0004.26
2024-06-11 09:02:00,SystemResetWarning,0830.8,5.01,000.00,031.1,030.3,000.0,039.4,032.7,024.3,0000.0,0013.41,0005.22,0004.30
2024-06-11 09:03:00,SystemResetWarning,0830.8,5.00,000.00,031.1,030.3,000.0,039.4,032.7,024.3,0000.0,0014.30,0005.29,0004.35
2024-06-11 09:04:00,SystemResetWarning,0830.8,4.99,000.00,031.1,030.4,000.0,039.4,032.7,024.6,0000.0,0015.34,0005.38,0004.39
2024-06-11 09:05:00,SystemResetWarning,0830.8,5.00,000.00,031.1,030.4,000.0,039.4,032.8,024.9,0000.0,0016.90,0005.52,0004.42
2024-06-11 09:06:00,SystemResetWarning,0830.9,5.00,000.00,031.1,030.4,000.0,039.4,032.8,025.0,0000.0,0018.47,0005.70,0004.47
2024-06-11 09:07:00,SystemResetWarning,0830.9,5.00,000.00,031.1,030.4,000.0,039.4,032.8,025.2,0000.0,0020.10,0005.84,0004.50
2024-06-11 09:08:00,SystemResetWarning,0830.9,5.00,000.00,031.1,030.4,000.0,039.5,032.8,025.3,0000.0,0020.28,0005.91,0004.52
2024-06-11 09:09:00,SystemResetWarning,0830.9,5.01,000.00,031.1,030.4,000.0,039.5,032.8,025.5,0000.0,0021.83,0005.97,0004.54
2024-06-11 09:10:00,SystemResetWarning,0830.9,5.00,000.00,031.1,030.4,000.0,039.5,032.8,025.9,0000.0,0022.14,0006.07,0004.57
2024-06-11 09:11:00,SystemResetWarning,0830.9,5.00,000.00,031.1,030.4,000.0,039.5,032.8,026.2,0000.0,0020.92,0006.10,0004.60
2024-06-11 09:12:00,SystemResetWarning,0830.9,5.00,000.00,031.1,030.4,000.0,039.5,032.8,026.6,0000.0,0020.94,0006.12,0004.61
2024-06-11 09:13:00,SystemResetWarning,0830.9,5.00,000.00,031.1,030.4,000.0,039.5,032.8,027.0,0000.0,0021.11,0006.15,0004.64
2024-06-11 09:14:00,SystemResetWarning,0831.0,5.00,000.00,031.1,030.4,000.0,039.5,032.9,027.3,0000.0,0020.85,0006.13,0004.62
2024-06-11 09:15:00,SystemResetWarning,0830.9,5.00,000.00,031.1,030.4,000.0,039.5,032.8,027.4,0000.0,0020.30,0006.11,0004.62
2024-06-11 09:16:00,SystemResetWarning,0830.9,4.99,000.00,031.1,030.4,000.0,039.5,032.9,027.6,0000.0,0019.49,0006.07,0004.64
2024-06-11 09:17:00,SystemResetWarning,0830.9,5.00,000.00,031.2,030.4,000.0,039.5,032.9,027.8,0000.0,0018.71,0005.99,0004.64
2024-06-11 09:18:00,SystemResetWarning,0830.9,5.00,000.00,031.2,030.4,000.0,039.5,032.8,028.1,0000.0,0017.37,0005.92,0004.63
2024-06-11 09:19:00,SystemResetWarning,0830.9,5.01,000.00,031.2,030.4,000.0,039.5,032.8,028.3,0000.0,0016.52,0005.84,0004.62
2024-06-11 09:20:00,SystemResetWarning,0830.9,5.00,000.00,031.2,030.4,000.0,039.6,032.8,028.6,0000.0,0015.09,0005.74,0004.60
2024-06-11 09:21:00,SystemResetWarning,0830.9,5.00,000.00,031.2,030.4,000.0,039.6,032.9,028.8,0000.0,0013.94,0005.65,0004.58
2024-06-11 09:22:00,SystemResetWarning,0830.9,5.00,000.00,031.2,030.4,000.0,039.6,032.9,028.9,0000.0,0013.23,0005.59,0004.55
2024-06-11 09:23:00,SystemResetWarning,0830.9,5.00,000.00,031.2,030.4,000.0,039.6,032.9,029.0,0000.0,0013.09,0005.51,0004.54
2024-06-11 09:24:00,SystemResetWarning,0830.9,5.00,000.00,031.2,030.4,000.0,039.6,032.9,029.1,0000.0,0013.18,0005.47,0004.51
2024-06-11 09:25:00,SystemResetWarning,0830.9,5.01,000.00,031.2,030.5,000.0,039.6,032.9,029.2,0000.0,0012.57,0005.43,0004.50
2024-06-11 09:26:00,SystemResetWarning,0830.9,4.99,000.00,031.2,030.5,000.0,039.6,032.9,029.2,0000.0,0012.71,0005.37,0004.47
2024-06-11 09:27:00,SystemResetWarning,0830.9,5.00,000.00,031.2,030.5,000.0,039.6,032.9,029.3,0000.0,0012.03,0005.34,0004.44
2024-06-11 09:28:00,SystemResetWarning,0830.9,5.00,000.00,031.2,030.5,000.0,039.6,032.9,029.3,0000.0,0011.87,0005.26,0004.40
2024-06-11 09:29:00,SystemResetWarning,0830.9,5.00,000.00,031.2,030.4,000.0,039.6,032.9,029.4,0000.0,0011.55,0005.21,0004.38
2024-06-11 09:30:00,SystemResetWarning,0830.9,5.01,000.00,031.2,030.4,000.0,039.6,032.9,029.4,0000.0,0011.49,0005.19,0004.36
2024-06-11 09:31:00,SystemResetWarning,0830.9,5.00,000.00,031.2,030.4,000.0,039.6,032.9,029.4,0000.0,0010.86,0005.19,0004.35
2024-06-11 09:32:00,SystemResetWarning,0830.9,5.01,000.00,031.2,030.4,000.0,039.6,032.9,029.3,0000.0,0011.28,0005.14,0004.34
2024-06-11 09:33:00,SystemResetWarning,0830.9,5.00,000.00,031.2,030.4,000.0,039.6,032.9,029.3,0000.0,0011.54,0005.10,0004.32
2024-06-11 09:34:00,SystemResetWarning,0831.0,5.00,000.00,031.2,030.4,000.0,039.7,032.9,029.3,0000.0,0012.56,0005.08,0004.31
2024-06-11 09:35:00,SystemResetWarning,0831.0,4.99,000.00,031.2,030.4,000.0,039.7,032.9,029.1,0000.0,0013.22,0005.07,0004.29
2024-06-11 09:36:00,SystemResetWarning,0831.1,5.00,000.00,031.2,030.4,000.0,039.7,032.9,029.1,0000.0,0013.13,0005.03,0004.28
2024-06-11 09:37:00,SystemResetWarning,0831.1,4.99,000.00,031.2,030.4,000.0,039.7,032.9,029.0,0000.0,0013.31,0005.08,0004.28
2024-06-11 09:38:00,SystemResetWarning,0831.2,5.00,000.00,031.2,030.4,000.0,039.7,032.9,028.9,0000.0,0013.95,0005.07,0004.29
2024-06-11 09:39:00,SystemResetWarning,0831.1,4.99,000.00,031.2,030.4,000.0,039.7,032.9,028.8,0000.0,0013.71,0005.12,0004.31
2024-06-11 09:40:00,SystemResetWarning,0831.2,5.00,000.00,031.2,030.5,000.0,039.7,032.9,028.9,0000.0,0013.64,0005.14,0004.33
2024-06-11 09:41:00,SystemResetWarning,0831.1,5.00,000.00,031.2,030.5,000.0,039.7,032.9,028.8,0000.0,0013.66,0005.14,0004.33
2024-06-11 09:42:00,SystemResetWarning,0831.1,5.00,000.00,031.2,030.5,000.0,039.7,032.9,028.7,0000.0,0013.58,0005.15,0004.34
2024-06-11 09:43:00,SystemResetWarning,0831.1,5.00,000.00,031.2,030.5,000.0,039.7,032.9,028.3,0000.0,0013.07,0005.18,0004.36
2024-06-11 09:44:00,SystemResetWarning,0831.1,5.01,000.00,031.2,030.5,000.0,039.7,032.9,027.9,0000.0,0012.94,0005.27,0004.39
2024-06-11 09:45:00,SystemResetWarning,0831.1,5.00,000.00,031.2,030.5,000.0,039.7,032.9,027.6,0000.0,0012.06,0005.36,0004.41
2024-06-11 09:46:00,SystemResetWarning,0831.1,4.99,000.00,031.2,030.4,000.0,039.7,032.9,027.2,0000.0,0011.36,0005.41,0004.44
2024-06-11 09:47:00,SystemResetWarning,0831.1,4.99,000.00,031.2,030.4,000.0,039.7,032.9,026.7,0000.0,0012.01,0005.51,0004.48
2024-06-11 09:48:00,SystemResetWarning,0831.2,4.99,000.00,031.2,030.4,000.0,039.7,032.8,026.3,0000.0,0011.76,0005.56,0004.51
2024-06-11 09:49:00,SystemResetWarning,0831.2,5.00,000.00,031.2,030.4,000.0,039.7,032.8,025.9,0000.0,0011.53,0005.68,0004.56
2024-06-11 09:50:00,SystemResetWarning,0831.2,5.00,000.00,031.2,030.4,000.0,039.7,032.9,025.4,0000.0,0012.31,0005.76,0004.58
2024-06-11 09:51:00,SystemResetWarning,0831.3,5.01,000.00,031.2,030.4,000.0,039.7,032.9,025.5,0000.0,0013.08,0005.81,0004.59
2024-06-11 09:52:00,SystemResetWarning,0831.2,5.00,000.00,031.2,030.4,000.0,039.7,032.9,025.4,0000.0,0015.06,0005.85,0004.62
2024-06-11 09:53:00,SystemResetWarning,0831.2,5.00,000.00,031.2,030.4,000.0,039.7,032.9,025.2,0000.0,0015.53,0005.91,0004.64
2024-06-11 09:54:00,SystemResetWarning,0831.2,5.00,000.00,031.2,030.4,000.0,039.6,032.9,025.1,0000.0,0015.80,0005.95,0004.66
2024-06-11 09:55:00,SystemResetWarning,0831.3,5.00,000.00,031.2,030.4,000.0,039.6,032.9,025.1,0000.0,0016.32,0005.99,0004.66
2024-06-11 09:56:00,SystemResetWarning,0831.3,5.00,000.00,031.2,030.4,000.0,039.7,032.9,025.3,0000.0,0017.92,0005.95,0004.67
2024-06-11 09:57:00,SystemResetWarning,0831.3,4.99,000.00,031.2,030.4,000.0,039.6,032.8,025.5,0000.0,0017.88,0005.92,0004.67
2024-06-11 09:58:00,SystemResetWarning,0831.3,5.00,000.00,031.2,030.4,000.0,039.7,032.9,025.5,0000.0,0018.34,0005.89,0004.66
2024-06-11 09:59:00,SystemResetWarning,0831.3,5.00,000.00,031.2,030.4,000.0,039.7,032.9,025.4,0000.0,0018.32,0005.81,0004.65
